Weather observations for the past three days for
Marshfield Airport
Imperial (Metric)
Date Time (edt) Wind (mph) Vis. (mi.) Weather Sky Cond. Temperature (ºF) Relative Humidity Wind Chill (°F) Heat Index (°F) Pressure Precipitation (in)
Air Dwpt 6 hour altimeter (in) sea level (mb) 1 hr 3 hr 6 hr
Max. Min.
21 18:55 Calm 10.00 Partly Cloudy SCT100 75.2 62.6 65% 77 29.99 0.0
21 18:35 Calm 10.00 A Few Clouds FEW095 75.2 62.6 65% 77 29.98 0.0
21 18:15 E 3 10.00 Fair CLR 75.2 62.6 65% 77 29.98 0.0
21 17:35 SE 5 10.00 Partly Cloudy SCT065 SCT095 77 60.8 57% 79 29.98 0.0
21 16:55 Calm 10.00 Overcast SCT075 OVC085 73.4 60.8 65% 29.99 0.0
21 16:35 SE 3 10.00 Overcast BKN075 OVC085 73.4 60.8 65% 29.99 0.0
21 16:15 Vrbl 6 G 12 10.00 Mostly Cloudy BKN090 75.2 60.8 61% 77 29.98 0.0
21 15:55 E 8 10.00 A Few Clouds FEW095 78.8 60.8 54% 80 29.98 0.0
21 15:35 SE 7 10.00 Fair CLR 78.8 60.8 54% 80 29.98 0.0
21 15:15 E 7 G 13 10.00 Fair CLR 78.8 60.8 54% 80 29.98 0.0
21 14:55 Vrbl 7 10.00 Fair CLR 80.6 60.8 51% 81 29.97 0.0
21 14:35 E 8 10.00 Fair CLR 80.6 60.8 51% 81 29.98 0.0
21 14:15 Vrbl 6 10.00 Fair CLR 80.6 59 48% 81 29.98 0.0
21 13:55 E 6 10.00 Fair CLR 80.6 59 48% 81 29.98 0.0
21 13:35 E 8 10.00 Fair CLR 80.6 59 48% 81 29.98 0.0
21 13:15 NE 9 10.00 Fair CLR 80.6 59 48% 81 29.98 0.0
21 12:55 Vrbl 6 10.00 Fair CLR 80.6 59 48% 81 29.98 0.0
21 12:35 NE 8 10.00 Fair CLR 80.6 57.2 45% 81 29.99 0.0
21 12:15 NE 7 10.00 Fair CLR 80.6 57.2 45% 81 29.99 0.0
21 11:55 NE 8 10.00 Fair CLR 80.6 57.2 45% 81 29.98 0.0
21 11:35 NE 7 10.00 Fair CLR 80.6 57.2 45% 81 29.98 0.0
21 11:15 Vrbl 6 10.00 Fair CLR 80.6 57.2 45% 81 29.98 0.0
21 10:55 Vrbl 7 10.00 Fair CLR 80.6 57.2 45% 81 29.99 0.0
21 10:35 Vrbl 7 10.00 Fair CLR 80.6 59 48% 81 29.99 0.0
21 10:15 NE 7 10.00 Fair CLR 80.6 60.8 51% 81 29.99 0.0
21 09:55 Calm 10.00 Fair CLR 80.6 60.8 51% 81 29.99 0.0
21 09:35 Calm 10.00 Fair CLR 78.8 60.8 54% 80 29.99 0.0
21 09:15 Calm 10.00 Fair CLR 78.8 64.4 61% 81 29.99 0.0
21 08:55 Vrbl 5 10.00 Fair CLR 77 64.4 65% 79 29.99 0.0
21 08:35 Vrbl 6 10.00 Fair CLR 77 64.4 65% 79 29.99 0.0
21 08:15 Vrbl 7 10.00 Fair CLR 77 66.2 69% 79 30 0.0
21 07:55 Vrbl 7 10.00 Partly Cloudy SCT100 75.2 66.2 74% 77 30 0.0
21 07:35 W 8 G 14 10.00 Mostly Cloudy BKN100 73.4 66.2 78% 30 0.0
21 07:15 SW 7 10.00 A Few Clouds FEW110 73.4 66.2 78% 30 0.0
21 06:55 Vrbl 5 10.00 Mostly Cloudy FEW085 BKN110 71.6 66.2 83% 29.99 0.0
21 06:35 Vrbl 6 10.00 Mostly Cloudy FEW080 BKN110 71.6 64.4 78% 29.99 0.0
21 06:15 W 6 10.00 Mostly Cloudy BKN110 71.6 64.4 78% 29.98 0.0
21 05:55 W 7 10.00 Mostly Cloudy BKN110 71.6 64.4 78% 29.98 0.0
21 05:35 W 5 10.00 Overcast OVC110 71.6 64.4 78% 29.98 0.0
21 05:15 Vrbl 6 10.00 Overcast FEW045 SCT060 OVC095 71.6 64.4 78% 29.97 0.0
21 04:55 Vrbl 7 10.00 Overcast SCT045 BKN075 OVC090 71.6 64.4 78% 29.96 0.0
21 04:35 Vrbl 6 10.00 Overcast FEW055 BKN075 OVC110 71.6 64.4 78% 29.96 0.0
21 04:15 Vrbl 5 10.00 Mostly Cloudy FEW055 SCT070 BKN080 71.6 62.6 73% 29.96 0.0
21 03:55 Vrbl 6 10.00 Partly Cloudy SCT120 71.6 62.6 73% 29.96 0.0
21 03:35 Vrbl 7 G 14 10.00 Partly Cloudy FEW050 FEW070 SCT120 71.6 62.6 73% 29.97 0.0
21 03:15 Vrbl 7 G 14 10.00 Mostly Cloudy FEW050 SCT095 BKN120 71.6 62.6 73% 29.97 0.0
21 02:55 Vrbl 7 10.00 A Few Clouds FEW110 71.6 62.6 73% 29.97 0.0
21 02:35 Vrbl 5 10.00 A Few Clouds FEW055 FEW070 FEW110 71.6 62.6 73% 29.98 0.0
21 02:15 SW 5 10.00 A Few Clouds FEW055 73.4 62.6 69% 29.97 0.0
21 01:55 SW 6 10.00 A Few Clouds FEW049 FEW055 73.4 62.6 69% 29.98 0.0
21 01:35 Vrbl 5 G 13 10.00 Partly Cloudy FEW039 SCT055 73.4 62.6 69% 29.98 0.0
21 01:15 SW 7 G 13 10.00 Mostly Cloudy FEW040 FEW048 BKN055 73.4 62.6 69% 29.98 0.0
21 00:55 SW 7 G 13 10.00 Mostly Cloudy FEW047 SCT050 BKN060 73.4 62.6 69% 29.99 0.0
21 00:35 Vrbl 6 G 15 10.00 Mostly Cloudy SCT048 BKN055 BKN060 73.4 62.6 69% 29.99 0.0
20 23:55 SW 6 G 13 10.00 Partly Cloudy FEW044 SCT050 SCT055 73.4 64.4 74% 29.99 0.0
20 23:35 Vrbl 7 G 16 10.00 Mostly Cloudy FEW048 FEW055 BKN110 75.2 64.4 69% 77 29.99 0.0
20 23:15 Vrbl 5 10.00 Overcast OVC100 75.2 64.4 69% 77 30 0.0
20 22:55 SW 9 10.00 Overcast OVC100 75.2 64.4 69% 77 30 0.0
20 22:35 SW 7 10.00 Overcast OVC095 75.2 64.4 69% 77 30.01 0.0
20 22:15 SW 8 10.00 Overcast OVC090 75.2 64.4 69% 77 30.01 0.0
20 21:55 SW 7 10.00 Overcast OVC090 75.2 64.4 69% 77 30.01 0.0
20 21:35 SW 8 G 14 10.00 Overcast FEW080 BKN090 OVC110 75.2 64.4 69% 77 30 0.0
20 21:15 SW 7 10.00 Overcast FEW048 FEW075 OVC090 77 66.2 69% 79 30 0.0
20 20:55 SW 9 10.00 Mostly Cloudy BKN090 77 66.2 69% 79 30 0.0
20 20:35 SW 9 G 15 10.00 Fair CLR 77 66.2 69% 79 30.01 0.0
20 20:15 SW 7 G 13 10.00 Fair CLR 77 66.2 69% 79 30.01 0.0
20 19:55 SW 7 10.00 Fair CLR 77 64.4 65% 79 30 0.0
20 19:35 SW 8 G 15 10.00 Fair CLR 78.8 64.4 61% 81 30 0.0
20 19:15 SW 10 10.00 Fair CLR 78.8 64.4 61% 81 30 0.0
20 18:55 SW 12 10.00 Fair CLR 80.6 62.6 54% 82 30 0.0
20 18:35 SW 8 G 15 10.00 Fair CLR 80.6 62.6 54% 82 29.99 0.0
20 18:15 SW 12 10.00 Fair CLR 82.4 62.6 51% 83 29.99 0.0
20 17:55 SW 12 10.00 Fair CLR 82.4 62.6 51% 83 29.99 0.0
20 17:35 SW 10 10.00 Fair CLR 82.4 60.8 48% 83 29.99 0.0
20 17:15 SW 9 10.00 Fair CLR 84.2 59 43% 84 29.99 0.0
20 16:55 SW 12 10.00 Fair CLR 84.2 59 43% 84 30 0.0
20 16:35 Vrbl 7 G 18 10.00 Fair CLR 84.2 59 43% 84 30 0.0
20 16:15 SW 13 10.00 A Few Clouds FEW060 86 59 40% 85 30.01 0.0
20 15:55 W 9 G 15 10.00 A Few Clouds FEW060 84.2 59 43% 84 30.01 0.0
20 15:35 SW 10 G 17 10.00 Fair CLR 84.2 59 43% 84 30.02 0.0
20 15:15 SW 13 10.00 Fair CLR 84.2 57.2 40% 83 30.02 0.0
20 14:55 SW 12 10.00 Fair CLR 84.2 59 43% 84 30.03 0.0
20 14:35 SW 9 10.00 Fair CLR 84.2 59 43% 84 30.03 0.0
20 14:15 SW 12 G 18 10.00 Fair CLR 84.2 59 43% 84 30.04 0.0
20 13:55 W 8 G 16 10.00 Fair CLR 82.4 57.2 42% 82 30.05 0.0
20 13:35 Vrbl 7 10.00 Fair CLR 82.4 57.2 42% 82 30.06 0.0
20 13:15 SW 9 10.00 Fair CLR 82.4 55.4 40% 82 30.06 0.0
20 12:55 SW 8 G 14 10.00 Fair CLR 84.2 57.2 40% 83 30.06 0.0
20 12:35 SW 12 G 18 10.00 Fair CLR 82.4 55.4 40% 82 30.06 0.0
20 12:15 SW 12 G 21 10.00 A Few Clouds FEW060 82.4 55.4 40% 82 30.07 0.0
20 11:55 SW 8 10.00 Fair CLR 82.4 57.2 42% 82 30.07 0.0
20 11:35 W 9 10.00 Fair CLR 82.4 55.4 40% 82 30.08 0.0
20 11:15 SW 6 10.00 A Few Clouds FEW075 82.4 57.2 42% 82 30.08 0.0
20 10:55 Vrbl 5 10.00 Fair CLR 80.6 55.4 42% 81 30.08 0.0
20 10:35 Vrbl 7 10.00 Fair CLR 80.6 55.4 42% 81 30.09 0.0
20 10:15 Vrbl 7 10.00 Fair CLR 78.8 57.2 48% 80 30.09 0.0
20 09:55 W 6 10.00 Fair CLR 78.8 57.2 48% 80 30.1 0.0
20 09:35 W 7 10.00 Fair CLR 77 59 54% 79 30.1 0.0
20 09:15 SW 7 10.00 Fair CLR 77 59 54% 79 30.1 0.0
20 08:55 Calm 10.00 Fair CLR 77 60.8 57% 79 30.1 0.0
20 08:35 Calm 10.00 Fair CLR 75.2 60.8 61% 77 30.1 0.0
20 08:15 Vrbl 5 10.00 Fair CLR 73.4 60.8 65% 30.11 0.0
20 07:55 Vrbl 6 10.00 Fair CLR 71.6 62.6 73% 30.11 0.0
20 07:35 Vrbl 3 10.00 Fair CLR 69.8 62.6 78% 30.11 0.0
20 07:15 W 6 10.00 Fair CLR 68 62.6 83% 30.11 0.0
20 06:55 Vrbl 5 10.00 Fair CLR 66.2 62.6 88% 30.11 0.0
20 06:35 W 5 10.00 Fair CLR 66.2 62.6 88% 30.1 0.0
20 06:15 Vrbl 5 10.00 Fair CLR 64.4 62.6 94% 30.09 0.0
20 05:55 W 5 10.00 Fair CLR 64.4 60.8 88% 30.09 0.0
20 05:35 Vrbl 5 10.00 Fair CLR 62.6 60.8 94% 30.09 0.0
20 05:15 Vrbl 5 10.00 Fair CLR 64.4 60.8 88% 30.09 0.0
20 04:55 Vrbl 5 10.00 Fair CLR 64.4 60.8 88% 30.09 0.0
20 04:35 W 5 10.00 A Few Clouds FEW055 64.4 60.8 88% 30.09 0.0
20 04:15 Vrbl 3 10.00 Partly Cloudy SCT060 64.4 62.6 94% 30.09 0.0
20 03:55 W 5 10.00 A Few Clouds FEW055 64.4 62.6 94% 30.09 0.0
20 03:35 W 6 10.00 A Few Clouds FEW060 64.4 62.6 94% 30.09 0.0
20 03:15 W 5 10.00 A Few Clouds FEW060 66.2 62.6 88% 30.09 0.0
20 02:55 Vrbl 5 10.00 Partly Cloudy SCT060 66.2 62.6 88% 30.09 0.0
20 02:35 W 3 10.00 Partly Cloudy SCT060 66.2 62.6 88% 30.09 0.0
20 02:15 W 3 10.00 Partly Cloudy SCT055 SCT065 66.2 62.6 88% 30.09 0.0
20 01:55 SW 6 10.00 Mostly Cloudy BKN060 66.2 62.6 88% 30.09 0.0
20 01:35 Vrbl 5 10.00 Partly Cloudy SCT055 SCT065 66.2 62.6 88% 30.09 0.0
20 01:15 Vrbl 5 10.00 Partly Cloudy SCT055 66.2 62.6 88% 30.09 0.0
20 00:55 W 5 10.00 A Few Clouds FEW055 FEW065 66.2 62.6 88% 30.09 0.0
20 00:35 W 6 10.00 Partly Cloudy SCT055 66.2 62.6 88% 30.1 0.0
20 00:15 SW 5 10.00 Partly Cloudy SCT060 68 62.6 83% 30.09 0.0
19 23:55 SW 5 10.00 A Few Clouds FEW060 68 62.6 83% 30.09 0.0
19 23:35 SW 5 10.00 A Few Clouds FEW060 68 62.6 83% 30.09 0.0
19 23:15 SW 5 10.00 A Few Clouds FEW055 68 62.6 83% 30.09 0.0
19 22:55 SW 5 10.00 Fair CLR 68 62.6 83% 30.09 0.0
19 22:35 SW 3 10.00 Fair CLR 68 62.6 83% 30.09 0.0
19 22:15 SW 3 10.00 Fair CLR 68 62.6 83% 30.09 0.0
19 21:55 SW 3 10.00 Fair CLR 68 62.6 83% 30.1 0.0
19 21:35 SW 3 10.00 Fair CLR 69.8 60.8 73% 30.1 0.0
19 21:15 Calm 10.00 Fair CLR 69.8 59 69% 30.1 0.0
19 20:55 Vrbl 5 10.00 Fair CLR 69.8 59 69% 30.09 0.0
19 20:35 S 5 10.00 Fair CLR 71.6 59 65% 30.09 0.0
19 20:15 S 5 10.00 Fair CLR 71.6 59 65% 30.08 0.0
19 19:55 S 5 10.00 Fair CLR 73.4 57.2 57% 30.08 0.0
19 19:35 Vrbl 5 10.00 Fair CLR 73.4 57.2 57% 30.08 0.0
19 19:15 S 5 10.00 Fair CLR 75.2 57.2 54% 78 30.07 0.0
19 18:55 Vrbl 5 10.00 Fair CLR 75.2 57.2 54% 78 30.07 0.0
19 18:35 SE 6 10.00 Fair CLR 75.2 55.4 50% 78 30.07 0.0
19 18:15 SE 5 10.00 Fair CLR 77 55.4 47% 79 30.07 0.0
19 17:55 Vrbl 3 10.00 Fair CLR 77 53.6 44% 78 30.07 0.0
19 17:35 SE 6 10.00 Fair CLR 75.2 55.4 50% 78 30.07 0.0
19 17:15 SE 7 10.00 Fair CLR 75.2 53.6 47% 78 30.07 0.0
19 16:55 SE 7 10.00 Fair CLR 75.2 55.4 50% 78 30.07 0.0
19 16:35 SE 7 10.00 Fair CLR 75.2 55.4 50% 78 30.07 0.0
19 16:15 SE 6 10.00 Fair CLR 77 55.4 47% 79 30.07 0.0
19 15:55 SE 6 10.00 Fair CLR 77 57.2 51% 79 30.07 0.0
19 15:35 SE 6 10.00 Fair CLR 75.2 55.4 50% 78 30.07 0.0
19 15:15 Vrbl 5 10.00 Fair CLR 75.2 53.6 47% 78 30.07 0.0
19 14:55 E 6 10.00 Fair CLR 75.2 53.6 47% 78 30.08 0.0
19 14:35 E 8 10.00 Fair CLR 75.2 51.8 44% 78 30.08 0.0
19 14:15 Vrbl 5 10.00 Fair CLR 75.2 53.6 47% 78 30.08 0.0
19 13:55 E 7 10.00 Fair CLR 73.4 53.6 50% 30.08 0.0
19 13:35 E 8 10.00 Fair CLR 75.2 51.8 44% 78 30.08 0.0
19 13:15 E 8 10.00 Fair CLR 73.4 53.6 50% 30.08 0.0
19 12:55 NE 9 10.00 Fair CLR 73.4 53.6 50% 30.08 0.0
19 12:35 NE 10 10.00 Fair CLR 71.6 53.6 53% 30.08 0.0
19 12:15 NE 9 10.00 Fair CLR 73.4 55.4 53% 30.08 0.0
19 11:55 Vrbl 6 10.00 Fair CLR 73.4 55.4 53% 30.08 0.0
19 11:15 NE 7 G 14 10.00 Fair CLR 73.4 55.4 53% 30.08 0.0
19 10:55 NE 8 G 14 10.00 Fair CLR 71.6 53.6 53% 30.08 0.0
19 10:35 Calm 10.00 Fair CLR 73.4 53.6 50% 30.08 0.0
19 10:15 Calm 10.00 Fair CLR 71.6 53.6 53% 30.07 0.0
19 09:55 Vrbl 7 10.00 Fair CLR 71.6 53.6 53% 30.07 0.0
19 09:35 Vrbl 5 G 12 10.00 Fair CLR 73.4 53.6 50% 30.07 0.0
19 09:15 Vrbl 5 G 12 10.00 Fair CLR 71.6 53.6 53% 30.07 0.0
19 08:55 Vrbl 6 10.00 Fair CLR 71.6 53.6 53% 30.07 0.0
19 08:35 Vrbl 7 G 13 10.00 Fair CLR 69.8 53.6 57% 30.06 0.0
19 08:15 Vrbl 6 G 13 10.00 Fair CLR 69.8 53.6 57% 30.06 0.0
19 07:55 Vrbl 3 10.00 Fair CLR 69.8 53.6 57% 30.06 0.0
19 07:35 Vrbl 5 G 13 10.00 Fair CLR 69.8 55.4 60% 30.05 0.0
19 07:15 Calm 10.00 Fair CLR 68 53.6 60% 30.04 0.0
19 06:55 Vrbl 3 10.00 Fair CLR 68 53.6 60% 30.03 0.0
19 06:35 Calm 10.00 Fair CLR 68 53.6 60% 30.03 0.0
19 06:15 NW 5 10.00 Fair CLR 66.2 53.6 64% 30.02 0.0
19 05:55 Vrbl 3 10.00 Fair CLR 66.2 55.4 68% 30.01 0.0
19 05:35 Calm 10.00 Fair CLR 64.4 55.4 73% 30.01 0.0
19 05:15 Calm 10.00 Fair CLR 66.2 55.4 68% 30 0.0
19 04:55 Calm 10.00 Fair CLR 66.2 55.4 68% 30 0.0
19 04:35 Vrbl 5 10.00 A Few Clouds FEW055 66.2 55.4 68% 30 0.0
19 04:15 Vrbl 3 10.00 Partly Cloudy FEW046 SCT055 68 55.4 64% 29.99 0.0
19 03:55 Vrbl 3 10.00 A Few Clouds FEW055 68 55.4 64% 29.99 0.0
19 03:35 Vrbl 6 10.00 A Few Clouds FEW050 68 55.4 64% 29.98 0.0
19 03:15 Vrbl 6 10.00 A Few Clouds FEW055 69.8 57.2 64% 29.98 0.0
19 02:55 Vrbl 6 G 13 10.00 A Few Clouds FEW050 69.8 57.2 64% 29.97 0.0
19 02:35 Vrbl 5 G 13 10.00 A Few Clouds FEW055 71.6 57.2 61% 29.96 0.0
19 02:15 Vrbl 5 10.00 A Few Clouds FEW055 69.8 59 69% 29.96 0.0
19 01:55 Vrbl 5 10.00 Partly Cloudy SCT055 68 60.8 78% 29.96 0.0
19 01:35 Calm 10.00 Partly Cloudy SCT055 68 60.8 78% 29.96 0.0
19 01:15 Calm 10.00 Mostly Cloudy SCT060 BKN065 68 60.8 78% 29.95 0.0
19 00:55 Calm 10.00 Mostly Cloudy BKN060 69.8 60.8 73% 29.95 0.0
19 00:35 Calm 10.00 Mostly Cloudy BKN060 69.8 60.8 73% 29.94 0.0
19 00:15 Vrbl 5 10.00 Partly Cloudy SCT060 71.6 59 65% 29.95 0.0
18 23:55 Vrbl 5 10.00 Mostly Cloudy BKN055 71.6 59 65% 29.94 0.0
18 23:35 Vrbl 5 10.00 Mostly Cloudy BKN055 73.4 59 61% 29.94 0.0
18 23:15 Vrbl 3 10.00 Partly Cloudy FEW050 SCT055 73.4 59 61% 29.93 0.0
18 22:55 Vrbl 5 10.00 Partly Cloudy SCT050 73.4 59 61% 29.93 0.0
18 22:35 Vrbl 6 10.00 Fair CLR 73.4 60.8 65% 29.92 0.0
18 22:15 W 6 10.00 Fair CLR 75.2 60.8 61% 77 29.92 0.0
18 21:55 W 5 10.00 Fair CLR 75.2 60.8 61% 77 29.92 0.0
18 21:35 Vrbl 5 10.00 Fair CLR 75.2 60.8 61% 77 29.91 0.0
18 21:15 W 5 10.00 Fair CLR 77 59 54% 79 29.91 0.0
18 20:55 Vrbl 5 10.00 Fair CLR 77 59 54% 79 29.9 0.0
18 20:35 Vrbl 3 10.00 Fair CLR 78.8 59 51% 80 29.89 0.0
18 20:15 Vrbl 3 10.00 Fair CLR 80.6 59 48% 81 29.88 0.0
18 19:55 Vrbl 5 10.00 Fair CLR 80.6 59 48% 81 29.88 0.0
18 19:35 Vrbl 7 10.00 Fair CLR 82.4 60.8 48% 83 29.87 0.0
18 19:15 W 6 10.00 Fair CLR 82.4 60.8 48% 83 29.85 0.0
Date Time (edt) Wind (mph) Vis. (mi.) Weather Sky Cond. Air Dwpt Max. Min. Relative Humidity Wind Chill (°F) Heat Index (°F) altimeter (in) sea level (mb) 1 hr 3 hr 6 hr
6 hour
Temperature (ºF) Pressure Precipitation (in)